• In Hungary
  • List of Countries
  • For 7 days
  • Water Temperature
  • Satellite Maps
  • Weather Map
  • News
  • Weather Widgets
  • user-avatar
    Login

    Hourly Weather Peredvir'ya

    Today, 21 October, Sunday

    Time Temperature Precipitation Wind Pressure Humidity
    00:00 +10°C° 0.5 mm 2 mps 748 mmHg 85%
    01:00 +10°C° 0.5 mm 2 mps 748 mmHg 86%
    02:00 +10°C° 0.5 mm 2 mps 748 mmHg 87%
    03:00 +10°C° 0.6 mm 2 mps 748 mmHg 87%
    04:00 +9°C° 0.6 mm 3 mps 748 mmHg 87%
    05:00 +9°C° 0.6 mm 3 mps 748 mmHg 87%
    06:00 +9°C° 0.1 mm 3 mps 748 mmHg 86%
    07:00 +9°C° 0.1 mm 3 mps 748 mmHg 86%
    08:00 +7°C° 0.1 mm 4 mps 749 mmHg 85%
    09:00 +8°C° 0 mm 4 mps 749 mmHg 80%
    10:00 +10°C° 0 mm 4 mps 750 mmHg 74%
    11:00 +11°C° 0 mm 4 mps 750 mmHg 69%
    12:00 +12°C° 0 mm 4 mps 750 mmHg 64%
    13:00 +12°C° 0 mm 4 mps 750 mmHg 60%
    14:00 +13°C° 0 mm 3 mps 750 mmHg 56%
    15:00 +12°C° 0 mm 3 mps 750 mmHg 59%
    16:00 +11°C° 0 mm 3 mps 750 mmHg 62%
    17:00 +10°C° 0 mm 2 mps 750 mmHg 64%
    18:00 +9°C° 0 mm 2 mps 751 mmHg 67%
    19:00 +8°C° 0 mm 2 mps 751 mmHg 69%
    20:00 +7°C° 0 mm 2 mps 751 mmHg 71%
    21:00 +7°C° 0 mm 2 mps 751 mmHg 72%
    22:00 +7°C° 0 mm 1 mps 752 mmHg 74%
    23:00 +7°C° 0 mm 1 mps 752 mmHg 75%

    Tomorrow, 22 October, Monday

    Time Temperature Precipitation Wind Pressure Humidity
    00:00 +6°C° 0 mm 1 mps 752 mmHg 77%
    01:00 +6°C° 0 mm 1 mps 752 mmHg 78%
    02:00 +6°C° 0 mm 1 mps 752 mmHg 80%
    03:00 +4°C° 0 mm 0 mps 751 mmHg 81%
    04:00 +4°C° 0 mm 0 mps 751 mmHg 82%
    05:00 +4°C° 0 mm 0 mps 751 mmHg 84%
    06:00 +4°C° 0 mm 0 mps 751 mmHg 83%
    07:00 +4°C° 0 mm 0 mps 751 mmHg 82%
    08:00 +4°C° 0 mm 0 mps 751 mmHg 81%
    09:00 +6°C° 0 mm 0 mps 751 mmHg 74%
    10:00 +8°C° 0 mm 0 mps 751 mmHg 66%
    11:00 +10°C° 0 mm 0 mps 751 mmHg 59%
    12:00 +11°C° 0 mm 0 mps 750 mmHg 56%
    13:00 +12°C° 0 mm 1 mps 750 mmHg 54%
    14:00 +13°C° 0 mm 1 mps 749 mmHg 51%
    15:00 +12°C° 0 mm 1 mps 749 mmHg 56%
    16:00 +11°C° 0 mm 1 mps 749 mmHg 60%
    17:00 +10°C° 0 mm 1 mps 748 mmHg 64%
    18:00 +9°C° 0 mm 1 mps 748 mmHg 67%
    19:00 +8°C° 0 mm 1 mps 748 mmHg 70%
    20:00 +8°C° 0 mm 1 mps 749 mmHg 73%
    21:00 +7°C° 0 mm 1 mps 748 mmHg 75%
    22:00 +6°C° 0 mm 2 mps 748 mmHg 77%
    23:00 +6°C° 0 mm 2 mps 748 mmHg 79%

    Day after tomorrow, 23 October, Tuesday

    Time Temperature Precipitation Wind Pressure Humidity
    00:00 +6°C° 0 mm 2 mps 748 mmHg 79%
    01:00 +5°C° 0 mm 3 mps 748 mmHg 80%
    02:00 +5°C° 0 mm 3 mps 748 mmHg 81%
    03:00 +5°C° 0.4 mm 3 mps 747 mmHg 84%
    04:00 +5°C° 0.4 mm 3 mps 747 mmHg 87%
    05:00 +6°C° 0.4 mm 4 mps 747 mmHg 89%
    06:00 +6°C° 0.2 mm 4 mps 747 mmHg 89%
    07:00 +6°C° 0.2 mm 4 mps 747 mmHg 89%
    08:00 +5°C° 0.2 mm 4 mps 747 mmHg 89%
    09:00 +6°C° 0 mm 4 mps 747 mmHg 82%
    10:00 +7°C° 0 mm 4 mps 747 mmHg 76%
    11:00 +7°C° 0 mm 5 mps 747 mmHg 69%
    12:00 +8°C° 0 mm 5 mps 746 mmHg 67%
    13:00 +8°C° 0 mm 5 mps 745 mmHg 64%
    14:00 +8°C° 0 mm 5 mps 744 mmHg 61%
    15:00 +8°C° 0.1 mm 5 mps 743 mmHg 64%
    16:00 +7°C° 0.1 mm 5 mps 742 mmHg 67%
    17:00 +7°C° 0.1 mm 5 mps 741 mmHg 69%
    18:00 +7°C° 0.3 mm 5 mps 740 mmHg 71%
    19:00 +7°C° 0.3 mm 5 mps 739 mmHg 72%
    20:00 +7°C° 0.3 mm 6 mps 738 mmHg 74%
    21:00 +6°C° 0.7 mm 7 mps 736 mmHg 75%
    22:00 +6°C° 0.7 mm 7 mps 735 mmHg 76%
    23:00 +6°C° 0.7 mm 8 mps 734 mmHg 78%

    24 October, Wednesday

    Time Temperature Precipitation Wind Pressure Humidity
    00:00 +6°C° 1.1 mm 9 mps 732 mmHg 79%
    01:00 +6°C° 1.1 mm 9 mps 731 mmHg 81%
    02:00 +6°C° 1.1 mm 9 mps 730 mmHg 83%
    03:00 +6°C° 0.7 mm 9 mps 730 mmHg 81%
    04:00 +6°C° 0.7 mm 8 mps 729 mmHg 79%
    05:00 +6°C° 0.7 mm 8 mps 729 mmHg 78%
    06:00 +5°C° 0.2 mm 8 mps 729 mmHg 77%
    07:00 +5°C° 0.2 mm 9 mps 730 mmHg 76%
    08:00 +3°C° 0.2 mm 9 mps 730 mmHg 75%
    09:00 +3°C° 0.3 mm 9 mps 730 mmHg 71%
    10:00 +3°C° 0.3 mm 10 mps 731 mmHg 66%
    11:00 +3°C° 0.3 mm 10 mps 732 mmHg 62%
    12:00 +3°C° 0.2 mm 10 mps 732 mmHg 59%
    13:00 +3°C° 0.2 mm 10 mps 732 mmHg 56%
    14:00 +3°C° 0.2 mm 10 mps 733 mmHg 53%
    15:00 +3°C° 0.1 mm 9 mps 733 mmHg 56%
    16:00 +4°C° 0.1 mm 8 mps 733 mmHg 58%
    17:00 +3°C° 0.1 mm 7 mps 733 mmHg 61%
    18:00 +3°C° 0 mm 7 mps 734 mmHg 62%
    19:00 +2°C° 0 mm 7 mps 734 mmHg 63%
    20:00 +2°C° 0 mm 7 mps 734 mmHg 64%
    21:00 +1°C° 0 mm 8 mps 734 mmHg 64%
    22:00 +1°C° 0 mm 8 mps 735 mmHg 64%
    23:00 +1°C° 0 mm 9 mps 735 mmHg 64%

    25 October, Thursday

    Time Temperature Precipitation Wind Pressure Humidity
    00:00 +1°C° 0.1 mm 9 mps 735 mmHg 65%
    01:00 +1°C° 0.1 mm 9 mps 735 mmHg 66%
    02:00 +1°C° 0.1 mm 9 mps 735 mmHg 68%
    03:00 +1°C° 0 mm 9 mps 736 mmHg 69%
    04:00 +1°C° 0 mm 8 mps 736 mmHg 70%
    05:00 0°C° 0 mm 8 mps 737 mmHg 71%
    06:00 0°C° 0 mm 8 mps 737 mmHg 72%
    07:00 0°C° 0 mm 7 mps 737 mmHg 74%
    08:00 0°C° 0 mm 7 mps 738 mmHg 75%
    09:00 +2°C° 0 mm 7 mps 738 mmHg 71%
    10:00 +3°C° 0 mm 7 mps 738 mmHg 67%
    11:00 +4°C° 0 mm 7 mps 738 mmHg 62%
    12:00 +4°C° 0.2 mm 6 mps 737 mmHg 66%
    13:00 +4°C° 0.2 mm 6 mps 737 mmHg 69%
    14:00 +4°C° 0.2 mm 6 mps 737 mmHg 72%
    15:00 +4°C° 0.7 mm 6 mps 736 mmHg 77%
    16:00 +4°C° 0.7 mm 6 mps 736 mmHg 82%
    17:00 +4°C° 0.7 mm 6 mps 736 mmHg 86%
    18:00 +5°C° 0.5 mm 6 mps 736 mmHg 87%
    19:00 +7°C° 0.5 mm 6 mps 736 mmHg 87%
    20:00 +8°C° 0.5 mm 7 mps 736 mmHg 87%
    21:00 +8°C° 0.3 mm 7 mps 736 mmHg 87%
    22:00 +8°C° 0.3 mm 7 mps 736 mmHg 87%
    23:00 +8°C° 0.3 mm 7 mps 737 mmHg 88%

    26 October, Friday

    Time Temperature Precipitation Wind Pressure Humidity
    00:00 +8°C° 0.1 mm 6 mps 737 mmHg 89%
    01:00 +7°C° 0.1 mm 6 mps 737 mmHg 89%
    02:00 +7°C° 0.1 mm 6 mps 737 mmHg 90%
    03:00 +7°C° 0.1 mm 6 mps 738 mmHg 90%
    04:00 +7°C° 0.1 mm 6 mps 738 mmHg 90%
    05:00 +7°C° 0.1 mm 5 mps 738 mmHg 90%
    06:00 +7°C° 0.3 mm 5 mps 738 mmHg 90%
    07:00 +8°C° 0.3 mm 5 mps 738 mmHg 90%
    08:00 +8°C° 0.3 mm 5 mps 738 mmHg 90%
    09:00 +8°C° 0.1 mm 6 mps 739 mmHg 87%
    10:00 +9°C° 0.1 mm 6 mps 739 mmHg 84%
    11:00 +9°C° 0.1 mm 6 mps 739 mmHg 82%
    12:00 +10°C° 0 mm 5 mps 739 mmHg 79%
    13:00 +10°C° 0 mm 5 mps 738 mmHg 75%
    14:00 +12°C° 0 mm 4 mps 738 mmHg 72%
    15:00 +11°C° 0 mm 4 mps 738 mmHg 75%
    16:00 +11°C° 0 mm 4 mps 738 mmHg 77%
    17:00 +10°C° 0 mm 4 mps 738 mmHg 80%
    18:00 +10°C° 0 mm 4 mps 738 mmHg 81%
    19:00 +8°C° 0 mm 4 mps 738 mmHg 81%
    20:00 +8°C° 0 mm 4 mps 738 mmHg 82%
    21:00 +8°C° 0 mm 4 mps 737 mmHg 83%
    22:00 +8°C° 0 mm 4 mps 737 mmHg 83%
    23:00 +8°C° 0 mm 4 mps 737 mmHg 84%
    Show more